Wind_Speed
29 30 30 30 31 32 33 38 46 47 48 49 52 60 58 57 60 60 55 45 47 56 56 52 45 40 35 40 40 40 45 42 34 35 32 32 33 38 40 40 40 37 38 40 43
28 30 32 35 35 36 36 35 39 46 48 49 47 51 59 61 65 69 57 59 59 65 62 54 55 54 48 37 50 49 51 47 36 36 36 37 37 39 40 41 34 38 38 43 48
32 34 36 38 40 40 41 41 41 41 45 46 48 49 51 53 54 58 65 66 65 66 59 58 58 55 50 47 45 54 54 43 39 38 38 37 43 48 44 39 31 38 37 43 50
33 35 38 39 40 41 42 43 44 45 46 46 47 47 48 50 52 53 56 55 55 59 62 60 57 54 51 48 40 47 53 48 43 41 46 41 40 42 45 32 33 41 45 45 49
33 35 36 38 40 42 44 46 48 49 49 50 51 53 53 52 49 52 51 52 55 59 61 63 62 58 55 48 46 50 50 51 47 44 47 44 41 40 40 36 42 44 44 49 50
38 40 42 43 44 46 47 47 49 51 53 55 56 55 54 53 53 56 58 54 52 57 62 66 66 60 60 57 54 54 54 53 52 50 44 45 41 43 31 35 42 47 49 51 47
43 45 47 49 50 51 53 54 55 55 55 56 58 59 57 52 55 53 57 56 55 52 56 65 67 66 64 62 58 58 60 60 59 50 49 47 45 42 38 39 45 46 50 51 40
46 48 51 53 55 56 58 59 59 60 62 62 62 61 59 60 58 57 58 57 56 59 53 56 66 67 66 66 63 61 64 67 59 51 51 48 41 44 39 41 44 45 48 45 35
53 56 58 59 60 61 62 64 64 65 67 68 68 67 64 64 63 63 61 59 58 57 59 61 62 65 66 67 68 66 65 61 58 55 54 53 48 48 42 40 47 48 42 34 31
53 57 60 62 64 66 68 69 70 71 70 71 72 71 72 72 71 65 64 63 60 59 62 60 58 58 58 64 57 57 59 61 59 59 57 58 52 49 44 42 48 47 35 31 29
55 60 62 66 69 71 73 75 78 78 79 79 78 80 76 81 78 75 70 67 65 64 61 58 62 59 53 53 56 59 63 64 61 60 61 60 54 52 48 41 44 42 30 28 24
63 66 70 74 77 79 82 81 82 83 81 79 81 83 79 83 82 82 80 73 70 68 65 64 61 42 48 48 51 50 53 56 56 57 58 58 55 56 51 44 39 34 29 23 20
70 74 77 77 74 73 67 61 60 63 76 61 64 73 73 79 83 87 88 82 73 72 71 67 50 49 49 46 47 44 43 41 46 49 54 53 51 51 43 39 31 28 24 22 22
76 74 66 57 53 52 50 50 50 50 55 48 50 53 60 70 76 83 86 84 82 73 69 66 57 60 51 51 49 43 36 36 36 37 41 46 53 48 32 33 27 22 21 21 24
66 58 51 47 44 45 45 45 44 43 45 39 42 40 43 51 63 71 77 81 77 73 69 64 64 62 56 48 43 33 30 24 24 31 39 43 52 37 28 27 22 22 21 26 18
52 47 43 43 43 43 44 44 42 40 39 34 34 31 31 35 42 48 65 74 73 66 65 63 62 58 50 47 43 38 32 30 30 34 44 33 41 32 15 17 21 19 24 19 22
45 43 43 44 43 42 40 38 36 37 34 34 30 29 30 30 29 33 51 64 69 70 69 65 65 61 57 53 49 44 38 35 35 40 39 26 39 4 12 11 15 22 26 22 23
41 41 39 44 38 30 26 26 26 28 30 32 29 29 27 28 21 24 38 53 61 67 65 67 66 63 58 52 48 47 38 35 35 32 36 26 34 19 14 16 13 16 17 23 19
36 36 44 34 19 12 12 15 13 13 20 28 28 29 25 24 29 19 29 49 58 67 69 66 65 61 57 50 46 44 43 33 32 36 25 35 22 13 15 12 18 19 15 21 15
32 34 37 22 14 10 9 12 12 17 17 14 20 24 23 28 31 26 32 36 56 68 70 67 67 64 56 50 47 45 36 36 40 41 32 33 27 15 13 18 19 11 19 21 21
29 32 32 23 20 9 10 10 11 16 17 16 14 20 20 29 38 25 39 21 36 62 66 65 66 64 62 57 51 51 50 46 44 39 34 29 21 10 17 18 17 14 21 24 20
28 33 30 25 20 18 15 14 18 19 18 15 10 9 21 29 33 34 31 33 35 51 64 68 67 60 57 57 48 46 43 42 38 36 33 28 20 13 19 21 18 19 21 19 16
29 35 31 23 16 14 13 14 14 15 16 11 10 8 14 22 25 34 27 51 30 43 63 67 68 61 56 56 53 50 48 45 48 43 38 30 20 15 22 27 21 20 22 17 12
28 32 33 25 18 10 13 11 11 18 12 10 8 6 3 12 16 26 23 35 39 43 48 67 67 65 59 53 52 48 49 50 49 47 39 30 22 17 22 27 24 24 21 14 10
30 30 31 30 21 12 11 6 16 16 12 11 7 3 1 6 5 11 24 34 35 42 51 62 64 64 59 57 51 51 48 47 47 43 36 28 20 27 27 27 26 25 21 11 9
28 31 35 29 22 19 14 14 16 17 11 9 12 8 6 4 7 13 20 29 29 36 44 61 59 62 56 54 53 51 46 48 44 39 29 25 29 33 32 27 25 24 19 12 10
21 27 29 34 32 27 23 18 15 11 13 10 8 7 9 9 8 11 16 20 30 32 41 58 61 62 56 56 54 54 44 46 43 36 31 36 33 32 31 28 27 22 15 13 9
Wind_Direction
259 262 263 259 257 254 251 253 247 240 239 242 243 244 241 241 232 235 234 242 246 246 245 245 243 239 253 244 241 240 245 244 247 258 266 265 269 277 281 280 286 300 293 295 300
262 264 267 269 267 261 258 252 247 247 244 243 244 242 243 243 240 242 241 241 244 246 249 249 248 251 251 252 249 245 244 245 254 258 257 259 262 278 278 274 287 291 287 292 297
268 269 269 267 264 266 266 263 258 247 246 247 244 242 239 240 238 239 239 245 249 251 255 262 258 253 262 258 257 252 257 254 255 255 257 257 263 264 273 275 290 287 284 284 289
273 271 269 266 265 265 265 265 263 259 253 247 247 247 246 246 244 242 241 243 245 251 256 258 258 257 258 262 257 258 253 253 256 251 255 256 264 262 268 281 286 284 286 287 288
277 274 272 270 269 268 268 266 263 261 260 258 255 251 247 246 246 252 247 245 246 245 248 252 253 257 260 263 258 251 254 256 258 254 256 259 262 271 264 283 286 283 283 286 293
282 280 278 276 273 271 267 265 264 262 261 261 260 259 255 255 249 250 251 247 244 244 242 245 251 253 254 255 255 258 257 256 259 259 259 266 269 269 272 282 278 280 283 284 288
286 285 283 281 278 275 273 270 266 262 260 259 258 259 260 258 251 247 250 248 246 245 241 242 242 246 250 254 253 254 258 260 259 262 260 266 268 274 281 277 281 283 284 286 280
289 288 287 285 282 279 276 272 269 267 264 262 258 257 258 256 252 247 245 247 246 241 239 239 239 243 247 253 253 253 254 257 261 262 257 262 265 269 275 277 280 284 285 286 277
288 287 286 285 283 282 279 276 273 269 264 260 259 258 255 253 250 247 247 244 243 243 240 240 237 238 244 248 252 253 254 257 262 259 259 262 271 275 277 279 277 283 284 286 280
288 288 287 285 283 281 280 277 275 273 268 263 261 257 255 253 251 248 246 245 241 241 242 238 239 242 242 245 258 259 256 258 261 265 264 266 270 274 276 277 278 279 282 281 270
294 294 292 290 289 287 284 281 278 274 270 267 265 257 252 250 249 248 244 242 241 238 239 240 240 245 248 253 258 258 260 262 265 268 268 269 272 274 274 270 275 272 273 270 268
302 299 297 294 290 287 285 283 280 274 269 269 265 261 256 248 246 245 244 240 238 238 233 236 242 245 247 249 253 256 258 260 264 265 267 266 267 268 268 266 264 262 261 258 267
304 301 299 297 295 290 288 285 281 277 272 267 266 263 255 249 245 240 241 242 236 235 235 238 250 247 250 251 246 251 255 266 266 263 260 261 260 260 260 263 246 251 251 254 276
308 306 303 298 295 291 291 288 283 279 275 273 264 259 255 251 242 236 237 239 238 233 233 235 237 238 238 238 242 243 260 267 255 252 257 260 262 255 258 240 239 245 242 251 266
312 308 303 300 297 295 294 289 284 280 280 274 270 262 258 255 249 237 229 230 233 235 230 232 233 237 232 237 240 249 260 248 239 246 254 256 263 256 232 227 235 240 233 259 252
311 307 305 302 300 297 293 288 283 275 272 272 274 273 266 259 256 239 229 226 225 226 226 225 228 231 234 231 235 236 240 242 236 236 243 240 250 246 218 230 226 224 244 256 236
313 313 312 307 303 298 291 287 279 271 270 264 267 273 264 257 260 245 229 219 218 217 218 218 222 223 225 225 223 219 226 234 228 226 234 230 236 168 198 229 231 229 249 229 232
319 321 323 321 309 302 299 293 284 270 259 260 260 262 264 246 240 248 223 214 211 211 206 213 216 218 221 225 225 225 231 240 241 246 241 226 235 179 235 241 238 239 236 223 226
327 335 341 331 325 341 358 349 343 317 276 260 254 255 250 241 217 207 222 206 208 204 204 207 211 217 217 221 222 218 222 230 244 246 241 231 230 187 231 253 248 244 223 218 234
330 339 346 338 333 333 342 345 340 348 353 297 257 243 245 226 217 188 193 214 213 205 202 203 206 212 214 214 217 216 223 224 232 233 233 223 219 199 225 250 260 215 206 220 238
341 340 345 337 316 4 337 340 346 343 347 345 268 245 237 223 218 206 187 178 211 206 202 198 202 208 210 209 216 213 211 217 223 231 234 222 214 214 226 234 235 223 220 229 240
346 348 344 344 335 338 342 337 330 330 342 344 349 291 231 226 227 224 185 193 194 206 200 196 199 203 210 209 212 216 217 225 234 240 240 230 220 225 216 219 215 221 226 231 228
354 355 355 347 341 344 355 349 339 333 329 328 343 267 227 233 239 237 204 201 173 203 205 198 200 198 197 205 206 212 214 215 223 229 230 234 220 215 198 213 213 218 230 224 215
359 6 9 2 356 347 354 351 359 344 338 328 333 349 261 229 246 243 212 185 204 203 210 203 201 198 202 205 206 212 212 213 220 226 225 224 220 201 195 202 205 216 231 223 205
5 7 8 13 5 3 357 7 357 354 358 356 328 341 1 244 183 202 232 191 183 207 213 205 202 201 200 204 205 211 214 217 219 224 225 217 199 185 187 198 208 213 219 213 215
21 26 27 16 10 9 357 341 350 355 1 351 6 337 263 240 211 211 225 211 196 186 212 207 205 201 200 203 204 211 214 214 215 218 210 191 178 190 189 195 199 208 201 217 210
26 25 25 25 32 25 16 7 360 353 356 3 358 329 313 265 227 178 216 208 214 182 202 209 205 199 198 202 204 209 211 212 214 205 191 175 169 190 189 188 203 192 203 214 200
Height
5795 5795 5795 5797 5798 5798 5800 5800 5801 5803 5806 5809 5811 5813 5817 5821 5825 5829 5836 5840 5834 5834 5839 5842 5848 5849 5850 5853 5854 5855 5854 5859 5864 5866 5869 5867 5864 5861 5861 5860 5859 5860 5856 5852 5850
5791 5790 5790 5789 5789 5791 5792 5793 5794 5795 5797 5798 5801 5803 5806 5809 5813 5817 5827 5825 5824 5823 5828 5835 5837 5838 5840 5843 5844 5845 5845 5852 5861 5859 5860 5859 5858 5854 5854 5854 5859 5854 5853 5847 5844
5786 5786 5785 5784 5784 5784 5783 5783 5784 5785 5787 5788 5790 5793 5796 5798 5802 5806 5811 5814 5812 5814 5820 5820 5825 5829 5830 5833 5834 5838 5836 5849 5851 5853 5849 5850 5851 5848 5847 5849 5853 5849 5849 5845 5840
5779 5778 5777 5777 5776 5776 5775 5775 5775 5776 5778 5779 5781 5783 5786 5788 5789 5795 5801 5806 5810 5811 5808 5812 5812 5816 5821 5822 5829 5825 5829 5836 5843 5841 5836 5839 5840 5841 5838 5845 5846 5842 5837 5835 5832
5770 5769 5768 5767 5766 5765 5764 5764 5765 5765 5766 5767 5770 5772 5776 5777 5782 5785 5790 5795 5798 5799 5800 5801 5803 5806 5808 5815 5817 5812 5819 5825 5829 5830 5829 5830 5832 5833 5833 5841 5836 5832 5831 5827 5824
5761 5758 5757 5755 5754 5753 5753 5753 5753 5753 5754 5755 5757 5758 5761 5764 5773 5775 5775 5781 5785 5787 5789 5790 5792 5798 5798 5800 5802 5805 5805 5810 5812 5818 5823 5821 5825 5820 5831 5832 5826 5825 5822 5819 5816
5750 5747 5745 5743 5741 5740 5739 5738 5739 5740 5742 5742 5743 5743 5747 5755 5757 5762 5760 5767 5771 5775 5777 5778 5782 5783 5786 5789 5793 5795 5794 5797 5801 5810 5812 5815 5811 5813 5823 5822 5816 5816 5814 5810 5810
5737 5734 5732 5729 5727 5725 5723 5722 5722 5722 5722 5724 5726 5729 5734 5739 5742 5746 5747 5753 5756 5760 5765 5766 5769 5773 5773 5776 5780 5783 5785 5783 5793 5802 5803 5807 5802 5809 5815 5811 5809 5807 5804 5803 5805
5724 5720 5715 5711 5708 5706 5703 5702 5702 5703 5704 5706 5709 5713 5720 5723 5727 5730 5735 5738 5741 5745 5750 5752 5754 5760 5764 5766 5768 5769 5771 5777 5785 5790 5794 5796 5794 5797 5804 5803 5798 5798 5797 5797 5799
5711 5705 5700 5694 5690 5686 5683 5681 5680 5680 5680 5682 5687 5696 5701 5703 5707 5715 5718 5722 5729 5731 5734 5739 5743 5747 5754 5754 5752 5762 5764 5768 5772 5780 5788 5785 5785 5788 5793 5794 5789 5789 5791 5792 5793
5694 5687 5679 5672 5665 5661 5659 5655 5654 5654 5655 5657 5662 5667 5676 5678 5686 5692 5698 5704 5710 5715 5719 5727 5729 5734 5745 5750 5754 5758 5758 5760 5766 5772 5776 5777 5777 5777 5781 5784 5781 5782 5785 5787 5789
5672 5665 5657 5649 5643 5637 5633 5625 5620 5623 5631 5628 5631 5639 5646 5651 5665 5672 5677 5686 5693 5701 5708 5711 5716 5735 5741 5743 5743 5747 5748 5750 5758 5761 5763 5763 5763 5765 5770 5773 5773 5777 5781 5783 5784
5653 5643 5633 5622 5614 5608 5605 5600 5596 5595 5598 5613 5604 5610 5616 5623 5636 5646 5652 5661 5677 5682 5690 5698 5717 5729 5728 5733 5733 5737 5740 5747 5747 5749 5746 5748 5749 5753 5762 5763 5766 5771 5775 5778 5779
5631 5620 5611 5603 5597 5590 5588 5583 5579 5579 5577 5590 5585 5586 5588 5593 5607 5617 5628 5640 5651 5669 5678 5686 5706 5704 5714 5718 5721 5727 5739 5736 5736 5734 5737 5740 5731 5741 5754 5756 5759 5766 5770 5773 5773
5612 5603 5596 5587 5584 5578 5573 5569 5566 5566 5566 5571 5563 5568 5573 5577 5578 5592 5603 5612 5631 5647 5660 5682 5685 5693 5701 5711 5719 5724 5727 5726 5726 5726 5727 5731 5726 5738 5746 5749 5757 5761 5764 5765 5767
5599 5591 5585 5577 5570 5565 5561 5556 5555 5556 5558 5556 5555 5558 5562 5563 5564 5576 5587 5594 5614 5626 5644 5661 5672 5681 5697 5702 5711 5717 5718 5718 5715 5717 5713 5727 5724 5734 5744 5747 5751 5756 5758 5761 5762
5587 5580 5572 5564 5559 5552 5546 5544 5544 5543 5546 5547 5548 5549 5551 5554 5555 5560 5567 5578 5595 5606 5625 5642 5655 5670 5680 5687 5697 5702 5705 5708 5709 5707 5709 5722 5718 5736 5740 5744 5748 5750 5752 5756 5757
5577 5570 5562 5553 5543 5539 5536 5534 5532 5531 5534 5536 5539 5541 5542 5546 5551 5551 5558 5568 5582 5595 5610 5627 5641 5658 5669 5677 5690 5693 5702 5706 5708 5709 5713 5717 5714 5734 5736 5739 5742 5746 5750 5752 5753
5571 5563 5553 5541 5536 5534 5533 5530 5527 5525 5525 5527 5530 5532 5535 5539 5543 5545 5551 5559 5569 5581 5596 5612 5631 5647 5661 5670 5680 5687 5688 5703 5703 5704 5711 5711 5720 5729 5731 5736 5738 5742 5747 5748 5751
5567 5558 5549 5540 5536 5533 5531 5529 5526 5524 5522 5521 5522 5525 5528 5532 5538 5540 5545 5555 5557 5568 5581 5600 5616 5633 5648 5659 5669 5678 5690 5692 5692 5695 5702 5707 5715 5725 5728 5730 5734 5739 5743 5744 5747
5562 5555 5547 5540 5535 5532 5530 5528 5526 5524 5522 5519 5517 5519 5522 5525 5529 5533 5540 5547 5551 5561 5577 5593 5606 5622 5633 5645 5657 5665 5672 5678 5685 5691 5696 5705 5715 5723 5724 5726 5732 5737 5739 5741 5745
5560 5553 5545 5538 5534 5531 5530 5528 5526 5523 5521 5518 5515 5515 5517 5519 5525 5529 5535 5541 5546 5555 5567 5580 5594 5610 5631 5639 5652 5662 5672 5678 5683 5689 5695 5704 5713 5717 5719 5723 5729 5734 5735 5739 5742
5559 5551 5543 5537 5532 5530 5528 5526 5524 5522 5519 5516 5514 5513 5514 5518 5523 5526 5532 5537 5542 5552 5559 5572 5584 5600 5613 5626 5641 5650 5660 5670 5673 5680 5688 5698 5709 5713 5716 5721 5728 5731 5734 5738 5738
5558 5552 5543 5535 5531 5529 5527 5525 5523 5520 5517 5515 5514 5514 5515 5518 5521 5525 5530 5535 5541 5548 5554 5561 5578 5591 5610 5624 5636 5646 5650 5656 5664 5670 5684 5694 5704 5708 5713 5718 5724 5729 5732 5735 5735
5559 5552 5544 5538 5532 5529 5527 5525 5524 5521 5518 5516 5515 5515 5515 5517 5520 5524 5526 5530 5536 5543 5550 5560 5572 5587 5602 5615 5628 5636 5645 5651 5658 5667 5678 5691 5698 5703 5709 5714 5720 5725 5729 5731 5733
5561 5555 5547 5540 5535 5532 5530 5526 5524 5522 5520 5518 5516 5515 5515 5516 5518 5521 5522 5526 5531 5538 5546 5556 5567 5582 5599 5610 5621 5630 5638 5646 5654 5661 5675 5685 5691 5698 5703 5711 5719 5723 5726 5729 5730
5564 5558 5552 5546 5539 5535 5530 5526 5524 5522 5520 5517 5516 5514 5513 5514 5515 5517 5519 5522 5527 5533 5541 5551 5561 5577 5594 5603 5613 5623 5634 5641 5649 5660 5670 5679 5688 5695 5701 5708 5716 5720 5724 5727 5728